This demonstration page uses our WeatherBlox Daily Observations layout. Learn more.

Left ArrowRight Arrow

Hourly Observations for October 9, 2022

Temp ( °F °C ) Dew Point ( °F °C ) Humidity (%) Winds ( mph kmh ) Pressure ( in mb ) Visibility ( mi km ) Precip ( " mm )
12:51 am 00:51 Cloudy 62 16.7 53 11.7 72 72 SSE 7 11 30.08 1019 10 16 0.00 0.00
1:51 am 01:51 Mostly Clear 60 15.6 54 12.2 80 80 SE 9 15 30.09 1019 10 16 0.00 0.00
2:51 am 02:51 Clear 58 14.4 54 12.2 87 87 E 5 7 30.08 1019 10 16 0.00 0.00
3:51 am 03:51 Clear 57 13.9 54 12.2 89 89 SE 5 7 30.07 1018 10 16 0.00 0.00
4:51 am 04:51 Clear 57 13.9 54 12.2 89 89 SSE 7 11 30.09 1019 10 16 0.00 0.00
5:51 am 05:51 Clear 56 13.3 53 11.7 90 90 SE 7 11 30.11 1020 10 16 0.00 0.00
6:51 am 06:51 Mostly Sunny 55 12.8 53 11.7 93 93 ESE 7 11 30.13 1020 10 16 0.00 0.00
7:51 am 07:51 Sunny 59 15 53 11.7 81 81 ESE 6 9 30.14 1021 10 16 0.00 0.00
8:51 am 08:51 Sunny 64 17.8 53 11.7 67 67 SE 7 11 30.14 1021 10 16 0.00 0.00
9:51 am 09:51 Mostly Sunny 69 20.6 53 11.7 57 57 SE 12 19 30.13 1020 10 16 0.00 0.00
10:51 am 10:51 Mostly Cloudy 70 21.1 53 11.7 55 55 SE 10 17 30.11 1020 10 16 0.00 0.00
11:51 am 11:51 Partly Cloudy 72 22.2 53 11.7 51 51 ESE 13 20 30.08 1019 10 16 0.00 0.00
12:51 pm 12:51 Partly Cloudy 75 23.9 54 12.2 48 48 ESE 10 17 30.04 1017 10 16 0.00 0.00
1:51 pm 13:51 Mostly Sunny 76 24.4 53 11.7 45 45 SE 10 17 30.00 1016 10 16 0.00 0.00
2:51 pm 14:51 Partly Cloudy 77 25 52 11.1 42 42 S 10 17 29.97 1015 10 16 0.00 0.00
3:51 pm 15:51 Partly Cloudy 78 25.6 52 11.1 40 40 SSE 12 19 29.96 1015 10 16 0.00 0.00
4:32 pm 16:32 Mostly Cloudy with Nearby Thunderstorms 75 23.9 52 11.1 45 45 SE 10 17 29.88 1012 10 16 0.00 0.00
4:51 pm 16:51 Mostly Cloudy 72 22.2 55 12.8 55 55 SSE 23 37 29.97 1015 10 16 0.00 0.00
5:00 pm 17:00 Mostly Cloudy with Nearby Thunderstorms 72 22.2 55 12.8 55 55 SSE 17 28 29.91 1013 10 16 0.00 0.00
5:27 pm 17:27 Mostly Cloudy 70 21.1 53 11.7 55 55 SE 15 24 29.94 1014 10 16 0.00 0.00
5:51 pm 17:51 Mostly Cloudy 69 20.6 51 10.6 53 53 SE 8 13 30.00 1016 10 16 0.00 0.00
6:51 pm 18:51 Clear 68 20 55 12.8 63 63 ENE 15 24 30.02 1017 10 16 0.00 0.00
7:51 pm 19:51 Clear 65 18.3 54 12.2 68 68 SE 6 9 30.03 1017 10 16 0.00 0.00
8:51 pm 20:51 Clear 63 17.2 54 12.2 72 72 SE 9 15 30.04 1017 10 16 0.00 0.00
9:51 pm 21:51 Clear 62 16.7 51 10.6 67 67 SE 6 9 30.04 1017 10 16 0.00 0.00
10:51 pm 22:51 Clear 59 15 51 10.6 75 75 ESE 7 11 30.04 1017 10 16 0.00 0.00
11:51 pm 23:51 Clear 59 15 52 11.1 77 77 SE 7 11 30.03 1017 10 16 0.00 0.00

Powered by AerisWeather